Regional Weather Roundup
Issued by NWS Newport/Morehead, NC

Current Version | Previous Version | Graphics & Text | Print | Product List | Glossary Off
Versions: 1 2 3 4 5 6 7 8 9 10 11 12 13 14 15 16 17 18 19 20 21 22 23 24 25 26 27 28 29 30 31 32 33 34 35 36 37 38 39 40 41 42 43 44 45 46 47 48 49 50

000
ASUS42 KMHX 292310
RWRMHX
WEATHER ROUNDUP FOR EASTERN NORTH CAROLINA
NATIONAL WEATHER SERVICE NEWPORT/MOREHEAD CITY NC
700 PM EDT TUE JUL 29 2014

NOTE: "FAIR" INDICATES FEW OR NO CLOUDS BELOW 12,000 FEET
WITH NO SIGNIFICANT WEATHER AND/OR OBSTRUCTIONS TO VISIBILITY

NCZ015>017-031-032-045>047-102-103-300000-
NORTH COAST

CITY           SKY/WX    TMP DP  RH WIND       PRES   REMARKS
EDENTON        MOSUNNY   77  66  69 E7        29.94S
ELIZABETH CITY PTSUNNY   75  62  64 E12       29.95R
KITTY HAWK     CLEAR     75  63  65 NE7       29.94S
MANTEO         NOT AVBL

$$

NCZ045>047-081-094-103-104-300000-
CENTRAL COAST

CITY           SKY/WX    TMP DP  RH WIND       PRES   REMARKS
FRISCO         MOSUNNY   77  66  68 NE9       29.92F
SWANQUARTER      N/A     77 N/A N/A E7        29.88S

$$

NCZ095-097-098-100-101-300000-
SOUTHERN COAST

CITY           SKY/WX    TMP DP  RH WIND       PRES   REMARKS
BEAUFORT       SUNNY     82  66  58 NE8       29.91S
CEDAR ISLAND     N/A     79 N/A N/A NE12      29.97S
JACKSONVILLE   MOSUNNY   83  64  52 N13       29.90S
NEWPORT        NOT AVBL
PINEY ISLAND   PTCLDY    80  71  74 E9        29.92R
WILMINGTON     MOSUNNY   81  68  64 E5        29.91S


$$

NCZ011>013-027>030-043-044-078>080-089-090>093-098-300000-
COASTAL PLAIN

CITY           SKY/WX    TMP DP  RH WIND       PRES   REMARKS
AHOSKIE        SUNNY     75  60  58 CALM      29.95S
CLINTON        PTSUNNY   81  62  52 N7        29.93S
ELIZABETHTOWN  PTSUNNY   82  65  56 CALM      29.91S
GOLDSBORO      MOSUNNY   79  64  58 NE9       29.92S
GREENVILLE     SUNNY     81  59  47 N6        29.96F
HAVELOCK       MOSUNNY   80  65  59 NE7       29.92S
KENANSVILLE    MOSUNNY   79  60  52 NE3       29.94S
KINSTON        SUNNY     79  59  50 N7        29.94S
NEW BERN       MOSUNNY   82  63  52 N9        29.93S
RICHLANDS      CLOUDY    81  63  54 N7        29.92S
ROANOKE RAPIDS NOT AVBL
ROCKY MOUNT    SUNNY     80  58  46 CALM      29.95S
WASHINGTON     SUNNY     78  61  54 N7        29.95R
WHITEVILLE     SUNNY     83  64  50 CALM      29.91R

$$

AMZ130-135-150-152-154-156-158-170-250-252-270-ANZ085-086-088-633-658-670-300000-
MARINE OBSERVATIONS

STATION/POSITION TIME  TEMP    WIND        PRES    WAVE   SWELL
                       AIR SEA DIR/SP/G            HT/PER HT/PER
                 (UTC) (F)     (DEG/KT/KT) (MB)    (FT/S) (FT/S)
CHESAPEAKE LIGHT NOT AVBL
BUOY 44014       2300   74 79   10/  8/ 12 1014.0    2/ 8   2/ 8
DUCK             2300   74 72   30/ 10/ 12 1013.5
2E DUCK          2200                        N/A     2/ 4
OREGON INLET     2300   75 78   30/ 10/ 15 1013.6
BUOY 44095       2300      79                N/A     3/ 6
20E OREGON INLET NOT AVBL
HATTERAS CG      2300   77 81   40/ 10/ 14 1013.4
DIAMOND BUOY     2300          VRB 14/ 17  1012.5    4/ 8   2/ 8
CAPE LOOKOUT     2200   78      50/ 12/ 13 1012.6
BEAUFORT LAB     2300   81 83   10/  5/  8 1012.4
30 SE NEW RIVER  2200   79 81   70/ 10/ 12 1012.8
5 SE WRIGHTSVILL 2200   77 82  110/  8/ 10   N/A
BUOY 41002       2225   81 81  210/ 19/ 23 1012.6    6/ 7   2/15
BUOY 41004       2300   81 84   50/  8/ 10 1011.7    3/ 5   2/ 5

$$


USA.gov is the U.S. government's official web portal to all federal, state and local government web resources and services.